COSMOS 1275 DEB, 42152

Orbit data source: Space-Track

COSMOS 1275 DEB, 42152 is space debris in LEO originally from a launch on Thu, 04 Jun 1981 UTC launched from the Plesetsk Missile And Space Complex (PKMTR). Debris objects in space refer to the collection of defunct objects orbiting the Earth. Examples of debris include non-operational satellites, rocket bodies, and fragments generated from explosions, collisions, or faulty payload assembly.

Loading next visibility...
Identifier
42152, 1981-053RQ
Orbit
LEO
Country
Flag of CISCIS
Related business
Manufacturer
Unknown
Mission
Spacecraft
Bus & Motor
Unknown
Mass
Unknown
Launch date (UTC)
1981-06-04 (45 years ago)
Launch vehicle
Unknown
Launch site
Plesetsk Missile And Space Complex (PKMTR)
Object type
Payload
Rocket body
Debris
Shape & HBR
Unknown shape, 0.1 m
Radar Cross Section
Small (<0.1 m²)

Expand to show TLE details & history
Last TLE update: 2 months ago

TLE from 2 months ago
0 COSMOS 1275 DEB
1 42152U 81053RQ  25348.34276985  .00002174  00000-0  13813-2 0  9999
2 42152  83.1200 215.4188 0056739   7.4182 352.7816 14.02600276614956
Epoch: 2025-12-14T08:13Z
TLE epoch observation values (Epoch: 2025-12-14T08:13:35.315Z)
Latitude
0.00003°
Longitude
8.7646°
Altitude
846.86 km
Speed
7.45 km/s
True Right ascension
14h 21m 40s
True Declination
0° 00' 00"
Sunlit
Object was in daylight at epoch
Visualization orbit readout
Latitude
Unknown
Longitude
Unknown
Altitude
Unknown
Speed
Unknown
Apparent Right ascension
Unknown
Apparent Declination
Unknown
Sunlit
N/A
Visualization observer readout
Local Sidereal Time
04:47:05
Azimuth
Unknown
Elevation
Unknown
Doppler factor
Unknown
Orbital elements
Apogee altitude
923.101 km
Perigee altitude
840.716 km
Semi-major axis
7,260.046 km
Eccentricity
0.00567
Inclination
83.12°
RAAN
215.4188°
Arg. of periapsis
7.4182°
True anomaly
352.69932°
Mean anomaly
352.7816°
Eccentric anomaly
352.74052°
Mean motion
3.5086 °/min
Orbital period
102.6 mins
BSTAR
0.0013813
Loading maneuver chart data...
Computing Atmospheric mass density...
Loading historical data...
Loading historical data...
Loading historical data...
Loading historical data...
Loading historical data...
Loading historical data...
Loading historical data...

Documentation

Showing up to 5 results
|